Regional Weather Roundup
Issued by NWS

Home | Current Version | Previous Version | Graphics & Text | Print | Product List | Glossary Off
Versions: 1 2 3 4 5 6 7 8 9 10 11 12 13 14 15 16 17 18 19 20 21 22 23 24 25 26 27 28 29 30 31 32 33 34 35 36 37 38 39 40 41 42 43 44 45 46 47 48 49 50

000
ASUS43 KMKX 241120
RWRWI

WISCONSIN REGIONAL WEATHER ROUNDUP
NATIONAL WEATHER SERVICE MILWAUKEE/SULLIVAN WI
600 AM CDT TUE APR 24 2018

NOTE: "FAIR" INDICATES FEW OR NO CLOUDS BELOW 12,000 FEET WITH NO
SIGNIFICANT WEATHER AND/OR OBSTRUCTIONS TO VISIBILITY.

WIZ001-002-006>008-014>016-023>028-241200-
NORTHWEST WISCONSIN

CITY           SKY/WX    TMP DP  RH WIND       PRES   REMARKS
SUPERIOR ARPT  FAIR      32  30  94 CALM      30.17R
ASHLAND        FAIR      38  29  70 N9        30.17R WCI  31
HAYWARD        FAIR      32  28  85 NE6       30.13R WCI  26
SIREN          FAIR      32  29  88 CALM      30.13S
CUMBERLAND     FAIR      34  30  86 CALM      30.13R
RICE LAKE      FAIR      32  31  97 CALM      30.14R
CHETEK         FAIR      32  31  96 CALM      30.12S
LADYSMITH      FAIR      33  29  86 CALM      30.14R
EAU CLAIRE     FAIR      34  31  88 NE3       30.11S
MENOMONIE      FAIR      37  33  84 CALM      30.12S
NEW RICHMOND   FAIR      35  31  87 CALM      30.13S
OSCEOLA        FAIR      34  32  91 CALM      30.15S
$$

WIZ003>005-009-010-017-018-241200-
NORTH CENTRAL WISCONSIN

CITY           SKY/WX    TMP DP  RH WIND       PRES   REMARKS
MANITOWISH WTR FAIR      27  27  99 CALM      30.12R
ARBOR VITAE    FAIR      32  27  81 CALM      30.11R
WOODRUFF       FAIR      32  27  81 CALM      30.11R
RHINELANDER    FAIR      31  26  82 CALM      30.11S
EAGLE RIVER    FAIR      28  25  86 CALM      30.11R
LAND O LAKES   FAIR      28  25  89 CALM      30.13R
PHILLIPS       FAIR      29  27  94 CALM      30.11S
TOMAHAWK       FAIR      26  23  89 CALM      30.12S
MEDFORD        FAIR      32  28  86 CALM      30.11S
MERRILL        FAIR      29  26  89 CALM      30.12S
$$

WIZ029-030-035-036-043>047-241200-
CENTRAL WISCONSIN

CITY           SKY/WX    TMP DP  RH WIND       PRES   REMARKS
WAUSAU         FAIR      33  28  81 CALM      30.09S
MOSINEE        PTCLDY    34  28  80 CALM      30.11S
MARSHFIELD     FAIR      37  29  72 CALM      30.10R
STEVENS POINT  FAIR      28  24  86 CALM      30.12R
WAUPACA        FAIR      34  30  84 CALM      30.11S
WAUTOMA        FAIR      29  27  92 CALM      30.12R
WISC RAPIDS    FAIR      32  26  78 CALM      30.12R
CAMP DOUGLAS   FAIR      29  28  95 E3        30.11R
$$

WIZ011>013-019>022-031-037>040-048>050-241200-
NORTHEAST WISCONSIN

CITY           SKY/WX    TMP DP  RH WIND       PRES   REMARKS
ANTIGO         FAIR      32  30  92 CALM      30.11R
SHAWANO        FAIR      32  29  89 CALM      30.10S
OCONTO         FAIR      30  28  94 CALM      30.10R
STURGEON BAY   FAIR      42  26  53 NW3       30.10R
GREEN BAY      FAIR      36  32  85 CALM      30.09S
MANITOWOC      FAIR      41  31  67 NW6       30.09R
APPLETON       PTCLDY    41  27  56 NW9       30.07F
CLINTONVILLE   FAIR      32  26  77 CALM      30.10S
OSHKOSH        FAIR      40  34  79 W5        30.09R
$$

WIZ032>034-041-042-053>061-241200-
SOUTHWEST WISCONSIN

CITY           SKY/WX    TMP DP  RH WIND       PRES   REMARKS
LA CROSSE      FAIR      39  33  79 CALM      30.12R
SPARTA         FAIR      28  27  93 CALM      30.13R
VIROQUA        FAIR      42  30  62 CALM      30.11R
BOSCOBEL       FAIR      32  29  88 CALM      30.12R
PRAIRIE DU CHI FAIR      37  30  75 CALM      30.12R
PLATTEVILLE    FAIR      41  32  70 NE6       30.10R
$$

WIZ056-057-062-063-064-067-068-241200-
SOUTH CENTRAL WISCONSIN

CITY           SKY/WX    TMP DP  RH WIND       PRES   REMARKS
REEDSBURG      FAIR      32  32 100 CALM      30.11S
BARABOO/DELLS  FAIR      32  28  83 CALM      30.10F
LONE ROCK      FAIR      31  30  96 CALM      30.11S
MINERAL POINT  FAIR      45  32  61 CALM      30.09S
MADISON        MOCLDY    36  33  89 CALM      30.09S
MIDDLETON      FAIR      37  34  87 CALM      30.10S
WATERTOWN      FAIR      44  33  65 CALM      30.08S
MONROE         FAIR      46  30  53 N6        30.08R
JANESVILLE     MOCLDY    45  32  61 CALM      30.08R
$$

WIZ051-052-058>065-066-070>072-241200-
SOUTHEAST WISCONSIN

CITY           SKY/WX    TMP DP  RH WIND       PRES   REMARKS
MILWAUKEE      CLOUDY    44  31  60 NE3       30.08R
WAUKESHA       CLOUDY    45  32  61 NW6       30.08R
MILWAUKEE/TIMM MOCLDY    46  27  46 CALM      30.08R
RACINE         CLOUDY    44  32  62 NE3       30.09R
BURLINGTON     MOCLDY    44  33  63 CALM      30.07S
KENOSHA        CLOUDY    47  33  58 CALM      30.07S
FOND DU LAC    FAIR      36  30  79 CALM      30.09R
SHEBOYGAN      FAIR      43  33  68 NW5       30.07S
WEST BEND      FAIR      45  30  57 CALM      30.08R
JUNEAU         FAIR      43  29  56 CALM      30.09S
$$

LSZ147-162-241200-
LAKE SUPERIOR

STATION/POSITION TIME  TEMP    WIND        PRES    WAVE
                       AIR SEA DIR/SP/G            HT/PER
                 (UTC) (F)     (DEG/KT/KT) (MB)    (FT/S)
DEVILS ISLAND    1100   41      60/ 12/ 13 1022.1R
SAXON HARBOR     1030   32     190/  3/  3 1020.0S
$$

LMZ867-665-643>646-241200-
LAKE MICHIGAN

STATION/POSITION TIME  TEMP    WIND        PRES    WAVE
                       AIR SEA DIR/SP/G            HT/PER
                 (UTC) (F)     (DEG/KT/KT) (MB)    (FT/S)
NORTHPORT PIER   1040   43                 1019.0S
KEWAUNEE LAKESHO 1054   42     110/  3/  5 1018.3R
SHEBOYGAN LAKESH 1100   45      10/  8/ 10 1018.9R
PORT WASHINGTON  1040   47     310/  5/  6 1019.3R
MILWAUKEE LAKESH 1100   40      10/  2/  3   N/A
KENOSHA   LAKESH 1100   42                 1018.3
$$

TC  - TEMPERATURE IN CELSIUS
VSB - VISIBILITY IN STATUTE MILES
WCI - WIND CHILL INDEX
HX  - HEAT INDEX





USA.gov is the U.S. government's official web portal to all federal, state and local government web resources and services.